Content
SEND FEEDBACK

Daily
Averages
Monthly
Summary
United States of America

PALCO, KANSAS


Home > North America > United States > Kansas
Elevation: 2277 feet     Latitude: 39 15N     Longitude: 099 34W

WEATHER
 
SELECT A DAY
Number of Records: 187,988;   Date Range: 1/1/95 - 7/7/14
 
SHARE

PRINT THIS DATA

[ ← Previous Day ]
WEATHER ALMANAC - FEBRUARY 13, 2013
[ Next Day → ]
[ °C ]   °F
Weather ElementAverageHighLow
Temperature40.1 °F57 °F (3:53 pm)23 °F (2:53 am)
Dewpoint19.6 °F24.1 °F (11:53 pm)16 °F (2:53 am)
Humidity48.2 %75 % (6:53 am)24 % (1:53 pm)
Barometer29.95 in30.03 in (2:53 am)29.87 in (3:53 pm)
Wind Speed10 mph18.4 mph (4:53 pm)
Wind Gust27.6 mph (10:53 am)
Weather ElementAverage
Visibility10 mi
Wind DirectionWNW (286.8 °)

Weather ElementTotal
Precipitation---
Heating Degree Days25 (Base 65)
Averaged from 22 records on February 13, 2013
WEATHER CONDITIONS BREAKOUT
WIND DIRECTION BREAKOUT
WEATHER BY HOUR - FEBRUARY 13, 2013
[ °C ]   °F
Local TimeTemperatureDewpointHumidityBarometerVisibilityWind DirectionWind SpeedGust SpeedPrecipitationEventsConditions
2:53 AM23.0 °F16.0 °F74 %30.03 in10.0 miWSW (240°)6.9 mphClear
3:53 AM23.0 °F16.0 °F74 %30.02 in10.0 miWest (260°)5.8 mphClear
4:53 AM26.1 °F18.0 °F71 %29.99 in10.0 miWest (260°)6.9 mphClear
5:53 AM25.0 °F17.1 °F72 %30.00 in10.0 miWest (280°)5.8 mphClear
6:53 AM24.1 °F17.1 °F75 %30.01 in10.0 miWest (270°)8.1 mphClear
7:53 AM25.0 °F17.1 °F72 %30.01 in10.0 miWSW (250°)3.5 mphClear
8:53 AM33.1 °F19.9 °F59 %30.01 in10.0 miWest (270°)9.2 mphClear
9:53 AM41.0 °F19.9 °F43 %29.99 in10.0 miWNW (300°)16.1 mphClear
10:53 AM46.9 °F19.9 °F34 %29.98 in10.0 miNW (310°)16.1 mph27.6 mphClear
11:53 AM50.0 °F19.0 °F29 %29.96 in10.0 miWNW (300°)15.0 mph21.9 mphClear
12:53 PM53.1 °F18.0 °F25 %29.93 in10.0 miWNW (300°)12.7 mph20.7 mphClear
1:53 PM54.0 °F18.0 °F24 %29.90 in10.0 miWNW (300°)11.5 mph21.9 mphClear
2:53 PM55.9 °F19.0 °F24 %29.88 in10.0 miNW (320°)17.3 mph24.2 mphClear
3:53 PM57.0 °F19.9 °F24 %29.87 in10.0 miNW (310°)12.7 mphClear
4:53 PM55.0 °F21.0 °F27 %29.88 in10.0 miNW (320°)18.4 mph21.9 mphClear
5:53 PM52.0 °F21.9 °F31 %29.89 in10.0 miNW (310°)9.2 mphScattered Clouds
6:53 PM45.0 °F21.0 °F39 %29.91 in10.0 miNW (310°)8.1 mphClear
7:53 PM45.0 °F21.9 °F40 %29.92 in10.0 miWNW (290°)5.8 mphOvercast
8:53 PM37.9 °F21.9 °F53 %29.92 in10.0 miWNW (290°)3.5 mphScattered Clouds
9:53 PM37.0 °F23.0 °F57 %29.93 in10.0 miWest (270°)6.9 mphMostly Cloudy
10:53 PM36.0 °F21.9 °F57 %29.95 in10.0 miWest (260°)9.2 mphClear
11:53 PM37.9 °F24.1 °F57 %29.97 in10.0 miWNW (290°)10.4 mphPartly Cloudy
Hourly data recorded from KHLC, located miles away from Palco, Kansas







STORIES FROM OUR PARTNERS